User: anonymous   Login
Location: Unspecified
(0.0000°N, 0.0000°E)
Time: 21:33:48
(UTC+00:00)
Language:

PAYLOAD C - Orbit

View from above orbital plane
View from above orbital plane
View from above satellite
View from above satellite

Ground track
Ground track

The orbit data is extracted from the following two-line orbital elements,

1 27842U 03031C   23083.01434412  .00000622  00000-0  29748-3 0  9998
2 27842  98.6889  90.5411 0009158 354.4253   5.6822 14.22626637 23807
Epoch (UTC): 24 March 2023 00:20:39
Eccentricity: 0.0009158
inclination: 98.6889°
perigee height: 810 km
apogee height: 823 km
right ascension of ascending node: 90.5411°
argument of perigee: 354.4253°
revolutions per day: 14.22626637
mean anomaly at epoch: 5.6822°
orbit number at epoch: 2380

The dashed part of the orbit path shows where the satellite is in the earth's shadow,  

DLR